| time (UTC) | temp F | wind direction | speed MPH | gust MPH | rain 1hr in | rain 24hr in | rain mn in | humidity % | barometer mb |
| 20260507113636 | 55 | 130 | 0.0 | 1.0 | 0.00 | 0.28 | 0.18 | 92 | 1013.1 |
| 20260507112635 | 55 | 127 | 0.0 | 1.0 | 0.00 | 0.28 | 0.18 | 92 | 1012.8 |
| 20260507111635 | 56 | 118 | 0.0 | 2.0 | 0.00 | 0.28 | 0.18 | 91 | 1012.5 |
| 20260507110634 | 56 | 88 | 0.0 | 1.0 | 0.00 | 0.28 | 0.18 | 93 | 1012.6 |
| 20260507105635 | 55 | 158 | 0.0 | 3.0 | 0.00 | 0.28 | 0.18 | 96 | 1012.6 |
| 20260507103638 | 54 | 122 | 0.0 | 1.0 | 0.00 | 0.28 | 0.18 | 99 | 1012.5 |
| 20260507102635 | 53 | 126 | 0.0 | 2.0 | 0.00 | 0.28 | 0.18 | 99 | 1012.5 |
| 20260507101636 | 53 | 117 | 0.0 | 1.0 | 0.00 | 0.28 | 0.18 | 99 | 1012.3 |
| 20260507100634 | 53 | 138 | 0.0 | 1.0 | 0.00 | 0.28 | 0.18 | 99 | 1012.1 |
| 20260507093636 | 52 | 95 | 0.0 | 2.0 | 0.00 | 0.28 | 0.18 | 99 | 1011.9 |
| 20260507092635 | 52 | 138 | 0.0 | 1.0 | 0.00 | 0.28 | 0.18 | 99 | 1011.6 |
| 20260507091637 | 51 | 143 | 0.0 | 1.0 | 0.00 | 0.28 | 0.18 | 99 | 1011.9 |
| 20260507085637 | 51 | 23 | 1.0 | 2.0 | 0.00 | 0.28 | 0.18 | 99 | 1011.4 |
| 20260507083647 | 51 | 140 | 0.0 | 1.0 | 0.00 | 0.28 | 0.18 | 99 | 1011.2 |
| 20260507082634 | 50 | 114 | 0.0 | 2.0 | 0.00 | 0.28 | 0.18 | 99 | 1011.1 |
| 20260507081634 | 51 | 136 | 0.0 | 2.0 | 0.00 | 0.28 | 0.18 | 99 | 1011.1 |
| 20260507080635 | 51 | 109 | 0.0 | 2.0 | 0.00 | 0.28 | 0.18 | 99 | 1011.2 |
| 20260507074634 | 51 | 119 | 0.0 | 2.0 | 0.00 | 0.28 | 0.18 | 99 | 1011.1 |
| 20260507073634 | 50 | 37 | 0.0 | 2.0 | 0.00 | 0.28 | 0.18 | 99 | 1010.8 |
| 20260507072633 | 50 | 140 | 0.0 | 3.0 | 0.00 | 0.28 | 0.18 | 99 | 1010.7 |
| 20260507065648 | 50 | 153 | 0.0 | 2.0 | 0.03 | 0.25 | 0.18 | 99 | 1010.4 |
| 20260507064637 | 50 | 123 | 0.0 | 3.0 | 0.03 | 0.25 | 0.18 | 99 | 1010.2 |
| 20260507061634 | 51 | 114 | 0.0 | 1.0 | 0.03 | 0.25 | 0.18 | 99 | 1009.4 |
| 20260507060637 | 51 | 100 | 0.0 | 3.0 | 0.00 | 0.25 | 0.15 | 99 | 1009.7 |
| 20260507055635 | 51 | 157 | 0.0 | 3.0 | 0.00 | 0.25 | 0.15 | 99 | 1009.8 |
| 20260507054634 | 51 | 141 | 0.0 | 1.0 | 0.00 | 0.25 | 0.15 | 99 | 1009.7 |
| 20260507053635 | 51 | 92 | 0.0 | 1.0 | 0.00 | 0.25 | 0.15 | 99 | 1009.6 |
| 20260507052635 | 52 | 153 | 2.0 | 3.0 | 0.00 | 0.25 | 0.15 | 99 | 1009.2 |
| 20260507051636 | 52 | 142 | 0.0 | 2.0 | 0.00 | 0.25 | 0.15 | 99 | 1009.1 |
| 20260507045636 | 53 | 148 | 1.0 | 4.0 | 0.00 | 0.25 | 0.15 | 99 | 1009.1 |
| 20260507044635 | 54 | 135 | 0.0 | 0.0 | 0.00 | 0.25 | 0.15 | 99 | 1008.9 |
| 20260507043635 | 54 | 141 | 0.0 | 1.0 | 0.00 | 0.25 | 0.15 | 99 | 1008.7 |
| 20260507040636 | 55 | 155 | 0.0 | 0.0 | 0.01 | 0.25 | 0.15 | 99 | 1008.4 |
| 20260507035634 | 55 | 147 | 0.0 | 0.0 | 0.01 | 0.24 | 0.15 | 99 | 1008.0 |
| 20260507034625 | 54 | 131 | 0.0 | 1.0 | 0.02 | 0.24 | 0.15 | 99 | 1008.0 |
| 20260507033623 | 54 | 128 | 0.0 | 0.0 | 0.02 | 0.24 | 0.15 | 99 | 1007.7 |
| 20260507032623 | 54 | 135 | 0.0 | 0.0 | 0.01 | 0.24 | 0.14 | 99 | 1007.9 |
| 20260507031626 | 54 | 144 | 0.0 | 1.0 | 0.01 | 0.24 | 0.14 | 99 | 1007.8 |
| 20260507030624 | 55 | 157 | 0.0 | 2.0 | 0.01 | 0.24 | 0.14 | 99 | 1007.8 |
| 20260507025625 | 55 | 137 | 0.0 | 1.0 | 0.01 | 0.23 | 0.14 | 99 | 1007.9 |
| 20260507024623 | 55 | 235 | 0.0 | 2.0 | 0.00 | 0.23 | 0.13 | 99 | 1007.8 |
| 20260507023626 | 55 | 137 | 0.0 | 0.0 | 0.00 | 0.23 | 0.13 | 99 | 1007.4 |
| 20260507022624 | 55 | 153 | 0.0 | 2.0 | 0.00 | 0.23 | 0.13 | 99 | 1007.8 |
| 20260507020624 | 55 | 247 | 1.0 | 3.0 | 0.00 | 0.23 | 0.13 | 99 | 1007.5 |
| 20260507015624 | 55 | 141 | 0.0 | 2.0 | 0.00 | 0.23 | 0.13 | 99 | 1007.2 |
| 20260507014624 | 55 | 143 | 0.0 | 4.0 | 0.00 | 0.23 | 0.13 | 99 | 1007.4 |
| 20260507013624 | 55 | 275 | 2.0 | 2.0 | 0.00 | 0.23 | 0.13 | 99 | 1007.2 |
| 20260507012624 | 55 | 140 | 0.0 | 1.0 | 0.00 | 0.23 | 0.13 | 99 | 1007.1 |
| 20260507010624 | 55 | 145 | 0.0 | 1.0 | 0.00 | 0.23 | 0.13 | 99 | 1007.3 |
| 20260507005610 | 55 | 138 | 0.0 | 1.0 | 0.00 | 0.23 | 0.13 | 99 | 1006.9 |
| 20260507004610 | 55 | 127 | 0.0 | 1.0 | 0.00 | 0.23 | 0.13 | 99 | 1006.7 |
| 20260507002611 | 55 | 131 | 0.0 | 2.0 | 0.01 | 0.23 | 0.13 | 99 | 1007.1 |
| 20260507000610 | 56 | 135 | 0.0 | 2.0 | 0.06 | 0.23 | 0.13 | 99 | 1007.3 |
| 20260506233610 | 56 | 150 | 0.0 | 2.0 | 0.12 | 0.15 | 0.12 | 99 | 1007.6 |
| 20260506231610 | 57 | 101 | 2.0 | 2.0 | 0.10 | 0.15 | 0.10 | 99 | 1007.8 |
| 20260506230610 | 57 | 124 | 0.0 | 1.0 | 0.07 | 0.15 | 0.07 | 99 | 1007.9 |
| 20260506225610 | 57 | 126 | 0.0 | 4.0 | 0.04 | 0.10 | 0.03 | 99 | 1008.1 |
| 20260506224611 | 57 | 186 | 0.0 | 2.0 | 0.02 | 0.10 | 0.02 | 99 | 1007.7 |
| 20260506222610 | 57 | 145 | 0.0 | 0.0 | 0.02 | 0.10 | 0.01 | 99 | 1007.2 |
| 20260506221611 | 57 | 145 | 0.0 | 0.0 | 0.01 | 0.10 | 0.00 | 99 | 1007.5 |
| 20260506220612 | 57 | 144 | 0.0 | 0.0 | 0.01 | 0.10 | 0.00 | 99 | 1007.5 |
| 20260506215608 | 57 | 131 | 0.0 | 0.0 | 0.02 | 0.09 | 0.10 | 99 | 1008.1 |
| 20260506214610 | 57 | 137 | 0.0 | 2.0 | 0.05 | 0.09 | 0.10 | 99 | 1007.9 |
| 20260506213609 | 57 | 195 | 1.0 | 2.0 | 0.08 | 0.09 | 0.10 | 98 | 1007.3 |
| 20260506212607 | 57 | 116 | 0.0 | 3.0 | 0.09 | 0.09 | 0.09 | 98 | 1007.6 |
| 20260506210607 | 58 | 30 | 0.0 | 1.0 | 0.09 | 0.09 | 0.09 | 96 | 1006.8 |
| 20260506205608 | 58 | 52 | 0.0 | 7.0 | 0.08 | 0.00 | 0.08 | 94 | 1007.2 |
| 20260506204607 | 59 | 220 | 2.0 | 6.0 | 0.05 | 0.00 | 0.04 | 91 | 1007.5 |
| 20260506203608 | 60 | 249 | 2.0 | 2.0 | 0.02 | 0.00 | 0.01 | 85 | 1006.7 |
| 20260506201609 | 61 | 142 | 0.0 | 0.0 | 0.00 | 0.00 | 0.00 | 78 | 1006.1 |
| 20260506200608 | 61 | 142 | 0.0 | 0.0 | 0.00 | 0.00 | 0.00 | 76 | 1006.3 |
| 20260506195609 | 61 | 143 | 0.0 | 0.0 | 0.00 | 0.00 | 0.00 | 75 | 1006.4 |
| 20260506194610 | 62 | 128 | 0.0 | 1.0 | 0.00 | 0.00 | 0.00 | 73 | 1006.2 |
| 20260506193608 | 63 | 135 | 0.0 | 4.0 | 0.00 | 0.00 | 0.00 | 72 | 1006.4 |
| 20260506191609 | 61 | 138 | 0.0 | 0.0 | 0.00 | 0.00 | 0.00 | 78 | 1006.6 |
| 20260506190608 | 61 | 144 | 0.0 | 0.0 | 0.00 | 0.00 | 0.00 | 77 | 1006.4 |
| 20260506185610 | 62 | 140 | 0.0 | 0.0 | 0.00 | 0.00 | 0.00 | 78 | 1006.0 |
| 20260506184608 | 62 | 133 | 0.0 | 0.0 | 0.00 | 0.00 | 0.00 | 75 | 1005.9 |
| 20260506182608 | 63 | 138 | 0.0 | 0.0 | 0.00 | 0.00 | 0.00 | 72 | 1006.1 |
| 20260506181608 | 64 | 146 | 0.0 | 1.0 | 0.00 | 0.00 | 0.00 | 70 | 1005.8 |
| 20260506180608 | 65 | 131 | 0.0 | 2.0 | 0.00 | 0.00 | 0.00 | 66 | 1005.8 |
| 20260506175609 | 66 | 153 | 0.0 | 1.0 | 0.00 | 0.00 | 0.00 | 64 | 1005.8 |
| 20260506174608 | 68 | 135 | 0.0 | 1.0 | 0.00 | 0.00 | 0.00 | 60 | 1005.6 |
| 20260506172608 | 69 | 142 | 0.0 | 2.0 | 0.00 | 0.00 | 0.00 | 57 | 1005.8 |
| 20260506170621 | 71 | 130 | 0.0 | 3.0 | 0.00 | 0.00 | 0.00 | 53 | 1005.7 |
| 20260506165607 | 72 | 209 | 4.0 | 4.0 | 0.00 | 0.00 | 0.00 | 50 | 1005.7 |
| 20260506164608 | 73 | 65 | 1.0 | 7.0 | 0.00 | 0.00 | 0.00 | 51 | 1005.9 |
| 20260506162608 | 74 | 275 | 1.0 | 4.0 | 0.00 | 0.00 | 0.00 | 50 | 1005.9 |
| 20260506161608 | 74 | 263 | 2.0 | 7.0 | 0.00 | 0.00 | 0.00 | 50 | 1006.0 |
| 20260506160608 | 74 | 130 | 2.0 | 6.0 | 0.00 | 0.00 | 0.00 | 49 | 1005.9 |
| 20260506155608 | 73 | 132 | 1.0 | 6.0 | 0.00 | 0.00 | 0.00 | 51 | 1006.1 |
| 20260506154608 | 74 | 135 | 3.0 | 7.0 | 0.00 | 0.00 | 0.00 | 48 | 1005.9 |
| 20260506153608 | 74 | 257 | 3.0 | 9.0 | 0.00 | 0.00 | 0.00 | 48 | 1006.0 |
| 20260506152607 | 74 | 214 | 5.0 | 7.0 | 0.00 | 0.00 | 0.00 | 49 | 1005.8 |
| 20260506151608 | 74 | 164 | 1.0 | 8.0 | 0.00 | 0.00 | 0.00 | 50 | 1006.0 |
| 20260506150607 | 74 | 134 | 4.0 | 9.0 | 0.00 | 0.00 | 0.00 | 48 | 1006.1 |
| 20260506145608 | 73 | 154 | 5.0 | 10.0 | 0.00 | 0.00 | 0.00 | 50 | 1005.9 |
| 20260506144610 | 73 | 253 | 4.0 | 8.0 | 0.00 | 0.00 | 0.00 | 51 | 1005.9 |
| 20260506143608 | 75 | 61 | 1.0 | 4.0 | 0.00 | 0.00 | 0.00 | 54 | 1006.0 |
| 20260506141608 | 74 | 200 | 4.0 | 8.0 | 0.00 | 0.00 | 0.00 | 55 | 1006.1 |
| 20260506134607 | 74 | 66 | 0.0 | 7.0 | 0.00 | 0.00 | 0.00 | 58 | 1006.0 |
| 20260506132607 | 72 | 121 | 2.0 | 6.0 | 0.00 | 0.00 | 0.00 | 57 | 1006.3 |
| 20260506131608 | 72 | 271 | 2.0 | 9.0 | 0.00 | 0.00 | 0.00 | 59 | 1006.0 |
| 20260506130609 | 72 | 140 | 0.0 | 8.0 | 0.00 | 0.00 | 0.00 | 59 | 1006.0 |
| 20260506125608 | 73 | 122 | 1.0 | 10.0 | 0.00 | 0.00 | 0.00 | 58 | 1006.3 |
| 20260506124608 | 74 | 136 | 9.0 | 13.0 | 0.00 | 0.00 | 0.00 | 56 | 1006.0 |
| 20260506123607 | 74 | 177 | 2.0 | 11.0 | 0.00 | 0.00 | 0.00 | 56 | 1006.0 |
| 20260506122608 | 73 | 248 | 4.0 | 8.0 | 0.00 | 0.00 | 0.00 | 58 | 1006.2 |
| 20260506121608 | 71 | 148 | 3.0 | 8.0 | 0.00 | 0.00 | 0.00 | 60 | 1006.2 |
| 20260506120614 | 73 | 270 | 6.0 | 7.0 | 0.00 | 0.00 | 0.00 | 59 | 1006.0 |
| 20260506115608 | 72 | 242 | 5.0 | 8.0 | 0.00 | 0.00 | 0.00 | 60 | 1006.1 |